Location: Gisborne
(38.6530°S, 178.0040°E)
Time: 09:33:07
(UTC+13:00)

ISS - Visible Passes

Search period start: 04 October 2023 00:00
Search period end: 14 October 2023 00:00
Orbit: 414 x 421 km, 51.6° (Epoch: 03 October)

Date Brightness Start Highest point End Pass type
(mag) Time Alt. Az. Time Alt. Az. Time Alt. Az.
04 Oct -0.8 05:29:34 10° SSW 05:31:05 12° SSE 05:32:36 10° SE visible
05 Oct -0.7 04:41:51 10° S 04:42:37 11° S 04:43:23 10° SSE visible
06 Oct -1.1 05:29:23 10° SSW 05:31:57 19° SSE 05:34:31 10° ESE visible
07 Oct -0.8 04:41:25 10° SSW 04:43:29 15° SSE 04:45:31 10° SE visible
08 Oct -0.5 03:54:55 12° SSE 03:54:55 12° SSE 03:56:21 10° SE visible
08 Oct -2.3 05:29:12 10° SW 05:32:27 38° SSE 05:35:40 10° ENE visible
09 Oct -1.6 04:41:44 14° SSW 04:44:00 25° SSE 04:46:55 10° E visible
10 Oct -0.9 03:55:48 18° SSE 03:55:48 18° SSE 03:57:57 10° ESE visible
10 Oct -3.8 05:29:07 10° SW 05:32:33 76° NW 05:35:57 10° NE visible
11 Oct -3.2 04:43:06 38° SSW 04:44:09 60° SE 04:47:31 10° ENE visible
12 Oct -1.0 03:57:47 17° E 03:57:47 17° E 03:58:49 10° E visible
12 Oct -2.6 05:30:47 18° W 05:32:15 24° NW 05:35:04 10° N visible
12 Oct -2.1 20:34:26 10° N 20:36:03 19° NNE 20:36:03 19° NNE visible
13 Oct -1.9 04:45:52 20° NNE 04:45:52 20° NNE 04:47:08 10° NNE visible
13 Oct -2.9 21:21:49 10° WNW 21:24:27 48° W 21:24:27 48° W visible
